• In Belarus
  • List of Countries
  • For 7 days
  • Water Temperature
  • Satellite Maps
  • Weather Map
  • Weather Widgets
  • user-avatar
    Login

    Hourly Weather La Massana

    Today, 21 September, Thursday

    Time Temperature Precipitation Wind Pressure Humidity
    00:00 +6°C° 0 mm 1 mps 612 mmHg 72%
    01:00 +6°C° 0 mm 1 mps 612 mmHg 71%
    02:00 +6°C° 0 mm 1 mps 611 mmHg 70%
    03:00 +5°C° 0 mm 1 mps 611 mmHg 69%
    04:00 +6°C° 0 mm 1 mps 611 mmHg 67%
    05:00 +6°C° 0 mm 1 mps 611 mmHg 65%
    06:00 +6°C° 0 mm 1 mps 611 mmHg 64%
    07:00 +9°C° 0 mm 1 mps 613 mmHg 55%
    08:00 +12°C° 0 mm 1 mps 614 mmHg 47%
    09:00 +15°C° 0 mm 1 mps 616 mmHg 38%
    10:00 +16°C° 0 mm 1 mps 616 mmHg 36%
    11:00 +18°C° 0 mm 1 mps 616 mmHg 35%
    12:00 +18°C° 0 mm 2 mps 616 mmHg 33%
    13:00 +18°C° 0 mm 2 mps 616 mmHg 35%
    14:00 +17°C° 0 mm 2 mps 616 mmHg 37%
    15:00 +17°C° 0 mm 2 mps 616 mmHg 39%
    16:00 +15°C° 0 mm 1 mps 615 mmHg 48%
    17:00 +12°C° 0 mm 1 mps 614 mmHg 58%
    18:00 +9°C° 0 mm 0 mps 613 mmHg 68%
    19:00 +9°C° 0 mm 1 mps 613 mmHg 70%
    20:00 +9°C° 0 mm 1 mps 613 mmHg 71%
    21:00 +8°C° 0 mm 1 mps 613 mmHg 72%
    22:00 +8°C° 0 mm 1 mps 613 mmHg 72%
    23:00 +7°C° 0 mm 1 mps 613 mmHg 72%

    Tomorrow, 22 September, Friday

    Time Temperature Precipitation Wind Pressure Humidity
    00:00 +7°C° 0 mm 1 mps 613 mmHg 71%
    01:00 +7°C° 0 mm 1 mps 613 mmHg 72%
    02:00 +7°C° 0 mm 1 mps 613 mmHg 72%
    03:00 +6°C° 0 mm 1 mps 613 mmHg 72%
    04:00 +6°C° 0.1 mm 1 mps 613 mmHg 73%
    05:00 +6°C° 0.1 mm 1 mps 613 mmHg 75%
    06:00 +6°C° 0.1 mm 1 mps 613 mmHg 76%
    07:00 +8°C° 0.1 mm 1 mps 614 mmHg 71%
    08:00 +10°C° 0.1 mm 1 mps 615 mmHg 67%
    09:00 +12°C° 0.1 mm 1 mps 616 mmHg 62%
    10:00 +13°C° 0.4 mm 1 mps 617 mmHg 61%
    11:00 +14°C° 0.4 mm 2 mps 617 mmHg 61%
    12:00 +14°C° 0.4 mm 2 mps 617 mmHg 60%
    13:00 +13°C° 1.1 mm 2 mps 616 mmHg 65%
    14:00 +13°C° 1.1 mm 1 mps 616 mmHg 70%
    15:00 +12°C° 1.1 mm 1 mps 615 mmHg 75%
    16:00 +11°C° 0.7 mm 1 mps 615 mmHg 79%
    17:00 +10°C° 0.7 mm 1 mps 615 mmHg 83%
    18:00 +9°C° 0.7 mm 1 mps 614 mmHg 87%
    19:00 +8°C° 0.3 mm 1 mps 614 mmHg 88%
    20:00 +8°C° 0.3 mm 1 mps 614 mmHg 88%
    21:00 +7°C° 0.3 mm 1 mps 615 mmHg 89%
    22:00 +7°C° 0.2 mm 1 mps 614 mmHg 89%
    23:00 +7°C° 0.2 mm 1 mps 614 mmHg 88%

    Day after tomorrow, 23 September, Saturday

    Time Temperature Precipitation Wind Pressure Humidity
    00:00 +7°C° 0.2 mm 1 mps 614 mmHg 88%
    01:00 +7°C° 0 mm 1 mps 614 mmHg 87%
    02:00 +7°C° 0 mm 1 mps 613 mmHg 86%
    03:00 +7°C° 0 mm 1 mps 613 mmHg 85%
    04:00 +7°C° 0 mm 1 mps 613 mmHg 85%
    05:00 +6°C° 0 mm 1 mps 613 mmHg 84%
    06:00 +6°C° 0 mm 1 mps 613 mmHg 84%
    07:00 +8°C° 0 mm 1 mps 614 mmHg 76%
    08:00 +11°C° 0 mm 1 mps 615 mmHg 69%
    09:00 +13°C° 0 mm 1 mps 616 mmHg 62%
    10:00 +14°C° 0.3 mm 2 mps 616 mmHg 58%
    11:00 +15°C° 0.3 mm 2 mps 617 mmHg 53%
    12:00 +16°C° 0.3 mm 2 mps 617 mmHg 49%
    13:00 +16°C° 0.4 mm 2 mps 617 mmHg 50%
    14:00 +16°C° 0.4 mm 2 mps 616 mmHg 50%
    15:00 +16°C° 0.4 mm 2 mps 616 mmHg 51%
    16:00 +14°C° 0.2 mm 2 mps 615 mmHg 58%
    17:00 +12°C° 0.2 mm 1 mps 614 mmHg 66%
    18:00 +10°C° 0.2 mm 1 mps 613 mmHg 74%
    19:00 +9°C° 0 mm 1 mps 613 mmHg 75%
    20:00 +9°C° 0 mm 1 mps 613 mmHg 77%
    21:00 +8°C° 0 mm 1 mps 613 mmHg 79%
    22:00 +8°C° 0 mm 1 mps 613 mmHg 77%
    23:00 +8°C° 0 mm 1 mps 613 mmHg 75%

    24 September, Sunday

    Time Temperature Precipitation Wind Pressure Humidity
    00:00 +8°C° 0 mm 1 mps 613 mmHg 73%
    01:00 +7°C° 0 mm 1 mps 613 mmHg 70%
    02:00 +7°C° 0 mm 1 mps 613 mmHg 67%
    03:00 +7°C° 0 mm 1 mps 613 mmHg 65%
    04:00 +7°C° 0 mm 1 mps 613 mmHg 63%
    05:00 +7°C° 0 mm 1 mps 613 mmHg 62%
    06:00 +7°C° 0 mm 1 mps 613 mmHg 60%
    07:00 +10°C° 0 mm 1 mps 614 mmHg 54%
    08:00 +13°C° 0 mm 1 mps 615 mmHg 48%
    09:00 +15°C° 0 mm 0 mps 617 mmHg 41%
    10:00 +18°C° 0 mm 1 mps 617 mmHg 39%
    11:00 +19°C° 0 mm 1 mps 617 mmHg 37%
    12:00 +19°C° 0 mm 2 mps 618 mmHg 35%
    13:00 +18°C° 0 mm 2 mps 617 mmHg 38%
    14:00 +18°C° 0 mm 2 mps 617 mmHg 40%
    15:00 +17°C° 0 mm 2 mps 616 mmHg 43%
    16:00 +15°C° 0 mm 1 mps 615 mmHg 50%
    17:00 +14°C° 0 mm 1 mps 614 mmHg 58%
    18:00 +11°C° 0 mm 0 mps 614 mmHg 65%
    19:00 +11°C° 0 mm 1 mps 613 mmHg 67%
    20:00 +10°C° 0 mm 1 mps 613 mmHg 69%
    21:00 +9°C° 0 mm 1 mps 613 mmHg 71%
    22:00 +9°C° 0 mm 1 mps 613 mmHg 70%
    23:00 +9°C° 0 mm 1 mps 613 mmHg 69%

    25 September, Monday

    Time Temperature Precipitation Wind Pressure Humidity
    00:00 +9°C° 0 mm 1 mps 612 mmHg 68%
    01:00 +9°C° 0 mm 1 mps 612 mmHg 67%
    02:00 +9°C° 0 mm 1 mps 612 mmHg 66%
    03:00 +9°C° 0 mm 1 mps 612 mmHg 65%
    04:00 +9°C° 0 mm 1 mps 612 mmHg 68%
    05:00 +8°C° 0 mm 1 mps 612 mmHg 70%
    06:00 +8°C° 0 mm 1 mps 612 mmHg 72%
    07:00 +10°C° 0 mm 1 mps 613 mmHg 67%
    08:00 +12°C° 0 mm 1 mps 614 mmHg 61%
    09:00 +14°C° 0 mm 2 mps 615 mmHg 56%
    10:00 +15°C° 0.2 mm 2 mps 615 mmHg 55%
    11:00 +15°C° 0.2 mm 2 mps 615 mmHg 54%
    12:00 +16°C° 0.2 mm 2 mps 615 mmHg 54%
    13:00 +15°C° 0.4 mm 2 mps 615 mmHg 59%
    14:00 +14°C° 0.4 mm 2 mps 614 mmHg 63%
    15:00 +13°C° 0.4 mm 2 mps 614 mmHg 68%
    16:00 +12°C° 0.3 mm 2 mps 614 mmHg 75%
    17:00 +10°C° 0.3 mm 2 mps 613 mmHg 81%
    18:00 +9°C° 0.3 mm 2 mps 613 mmHg 87%
    19:00 +8°C° 0.1 mm 2 mps 613 mmHg 89%
    20:00 +7°C° 0.1 mm 2 mps 613 mmHg 91%
    21:00 +7°C° 0.1 mm 2 mps 613 mmHg 93%
    22:00 +7°C° 0.1 mm 2 mps 613 mmHg 93%
    23:00 +8°C° 0.1 mm 1 mps 613 mmHg 93%

    26 September, Tuesday

    Time Temperature Precipitation Wind Pressure Humidity
    00:00 +8°C° 0.1 mm 1 mps 613 mmHg 93%
    01:00 +7°C° 0.1 mm 1 mps 613 mmHg 94%
    02:00 +7°C° 0.1 mm 1 mps 613 mmHg 95%
    03:00 +7°C° 0.1 mm 1 mps 612 mmHg 95%
    04:00 +6°C° 0 mm 1 mps 612 mmHg 95%
    05:00 +6°C° 0 mm 1 mps 612 mmHg 95%
    06:00 +6°C° 0 mm 1 mps 612 mmHg 95%
    07:00 +7°C° 0 mm 1 mps 613 mmHg 88%
    08:00 +9°C° 0 mm 1 mps 614 mmHg 81%
    09:00 +10°C° 0 mm 1 mps 615 mmHg 74%
    10:00 +11°C° 0 mm 1 mps 615 mmHg 70%
    11:00 +11°C° 0 mm 1 mps 615 mmHg 67%
    12:00 +12°C° 0 mm 1 mps 615 mmHg 63%
    13:00 +12°C° 0.1 mm 1 mps 614 mmHg 64%
    14:00 +11°C° 0.1 mm 1 mps 614 mmHg 65%
    15:00 +11°C° 0.1 mm 1 mps 614 mmHg 66%
    16:00 +10°C° 0 mm 1 mps 613 mmHg 71%
    17:00 +9°C° 0 mm 1 mps 613 mmHg 75%
    18:00 +7°C° 0 mm 0 mps 613 mmHg 80%
    19:00 +6°C° 0 mm 0 mps 613 mmHg 82%
    20:00 +7°C° 0 mm 1 mps 613 mmHg 85%
    21:00 +6°C° 0 mm 1 mps 613 mmHg 87%
    22:00 +6°C° 0 mm 1 mps 613 mmHg 88%
    23:00 +5°C° 0 mm 1 mps 613 mmHg 88%
    Show more